Location: Ostrava
(49.8330°N, 18.2830°E)
Time: 16:53:12
(UTC+01:00)

Vanguard 2 Rocket - Visible Passes

Search period start: 20 February 2018 00:00
Search period end: 02 March 2018 00:00
Orbit: 555 x 3327 km, 32.9° (Epoch: 19 February)

Date Brightness Start Highest point End Pass type
(mag) Time Alt. Az. Time Alt. Az. Time Alt. Az.
20 Feb 9.9 02:11:08 40° SSE 02:11:08 40° SSE 02:24:55 10° SE visible
20 Feb 10.0 04:16:57 28° SW 04:22:27 31° SSW 04:37:30 10° SSE visible
21 Feb 10.3 01:15:01 30° SE 01:15:01 30° SE 01:24:00 10° ESE visible
21 Feb 9.9 03:20:49 36° SSW 03:21:31 36° SSW 03:38:09 10° SE visible
21 Feb 10.5 05:26:38 13° WSW 05:35:59 19° SW 05:46:46 10° S visible
22 Feb 10.7 00:18:57 17° ESE 00:18:57 17° ESE 00:22:33 10° ESE visible
22 Feb 10.0 02:24:46 37° S 02:24:46 37° S 02:38:04 10° SE visible
22 Feb 10.2 04:30:35 22° SW 04:35:34 25° SW 04:49:15 10° S visible
23 Feb 10.3 01:28:47 28° SE 01:28:47 28° SE 01:37:20 10° SE visible
23 Feb 10.0 03:34:36 30° SSW 03:34:51 30° SSW 03:50:27 10° SSE visible
23 Feb 10.6 05:42:55 10° WSW 05:48:50 12° SW 05:54:39 10° SSW visible
24 Feb 10.7 00:32:51 17° ESE 00:32:51 17° ESE 00:36:03 10° ESE visible
24 Feb 10.1 02:38:41 32° S 02:38:41 32° S 02:50:45 10° SE visible
24 Feb 10.4 04:44:31 17° SW 04:48:37 18° SW 04:59:42 10° S visible
24 Feb 9.8 20:56:05 10° SSW 20:56:38 12° SSW 20:56:38 12° SSW visible
25 Feb 10.4 01:42:49 25° SSE 01:42:49 25° SSE 01:50:19 10° SE visible
25 Feb 10.2 03:48:40 24° SSW 03:48:40 24° SSW 04:01:54 10° S visible
25 Feb 9.6 19:58:55 10° S 20:00:50 14° SSE 20:00:50 14° SSE visible
26 Feb 10.8 00:47:01 14° SE 00:47:01 14° SE 00:49:17 10° SE visible
26 Feb 10.3 02:52:52 25° S 02:52:52 25° S 03:02:49 10° SSE visible
26 Feb 10.6 04:58:42 11° SW 05:01:38 11° SW 05:06:39 10° SSW visible
26 Feb 9.6 19:04:47 10° SE 19:05:01 10° SE 19:05:01 10° SE visible
26 Feb 9.7 21:09:25 10° SSW 21:10:51 15° SSW 21:10:51 15° SSW visible
27 Feb 10.5 01:57:07 20° SSE 01:57:07 20° SSE 02:02:49 10° SSE visible
27 Feb 10.5 04:02:58 17° SW 04:02:58 17° SW 04:11:53 10° S visible
27 Feb 9.3 20:11:42 10° SSW 20:14:59 19° S 20:14:59 19° S visible
28 Feb 10.9 01:01:24 11° SE 01:01:24 11° SE 01:02:07 10° SE visible
28 Feb 10.5 03:07:15 18° S 03:07:15 18° S 03:13:55 10° S visible
28 Feb 9.3 19:14:58 10° S 19:19:05 15° SE 19:19:05 15° SE visible
28 Feb 9.5 21:23:07 10° SW 21:24:55 17° SSW 21:24:55 17° SSW visible
01 Mar 10.7 02:11:34 15° SSE 02:11:34 15° SSE 02:14:38 10° SSE visible
01 Mar 9.1 20:25:04 10° SSW 20:28:59 23° S 20:28:59 23° S visible
